When you browse on this site, cookies collect data to enhance your experience and personalize the content and advertising you see.
Visit our Privacy Policy to learn more. By continuing to use the site, you agree to this use of cookies and data.
  • In Lithuania
  • List of Countries
  • For 7 days
  • Water Temperature
  • Satellite Maps
  • Weather Map
  • Weather Widgets
  • user-avatar
    Login

    Hourly Weather Lankaran

    Today, 24 March, Sunday

    Time Temperature Precipitation Wind Pressure Humidity
    00:00 +4°C° 0 mm 2 mps 629 mmHg 56%
    01:00 +4°C° 0 mm 2 mps 629 mmHg 56%
    02:00 +3°C° 0 mm 2 mps 628 mmHg 56%
    03:00 +2°C° 0 mm 3 mps 628 mmHg 55%
    04:00 +2°C° 0 mm 3 mps 628 mmHg 57%
    05:00 +3°C° 0 mm 2 mps 628 mmHg 60%
    06:00 +2°C° 0 mm 2 mps 628 mmHg 62%
    07:00 +3°C° 0 mm 3 mps 628 mmHg 57%
    08:00 +5°C° 0 mm 3 mps 629 mmHg 52%
    09:00 +7°C° 0 mm 4 mps 629 mmHg 46%
    10:00 +8°C° 0 mm 4 mps 629 mmHg 46%
    11:00 +8°C° 0 mm 4 mps 629 mmHg 45%
    12:00 +10°C° 0 mm 4 mps 629 mmHg 45%
    13:00 +8°C° 0 mm 4 mps 629 mmHg 48%
    14:00 +8°C° 0 mm 4 mps 629 mmHg 52%
    15:00 +7°C° 0 mm 4 mps 628 mmHg 56%
    16:00 +6°C° 0.1 mm 4 mps 628 mmHg 65%
    17:00 +4°C° 0.1 mm 4 mps 627 mmHg 74%
    18:00 +3°C° 0.1 mm 4 mps 627 mmHg 83%
    19:00 +2°C° 0.1 mm 3 mps 627 mmHg 85%
    20:00 +2°C° 0.1 mm 3 mps 627 mmHg 88%
    21:00 +1°C° 0.1 mm 3 mps 627 mmHg 90%
    22:00 +1°C° 0.1 mm 3 mps 627 mmHg 90%
    23:00 +1°C° 0.1 mm 3 mps 627 mmHg 91%

    Tomorrow, 25 March, Monday

    Time Temperature Precipitation Wind Pressure Humidity
    00:00 0°C° 0.1 mm 3 mps 627 mmHg 91%
    01:00 0°C° 0.3 mm 3 mps 627 mmHg 91%
    02:00 0°C° 0.3 mm 3 mps 627 mmHg 92%
    03:00 -1°C° 0.3 mm 3 mps 627 mmHg 92%
    04:00 -2°C° 0.7 mm 4 mps 627 mmHg 92%
    05:00 -2°C° 0.7 mm 4 mps 627 mmHg 92%
    06:00 -3°C° 0.7 mm 4 mps 627 mmHg 92%
    07:00 -3°C° 0.7 mm 4 mps 627 mmHg 91%
    08:00 -3°C° 0.7 mm 4 mps 628 mmHg 91%
    09:00 -4°C° 0.7 mm 4 mps 628 mmHg 90%
    10:00 -4°C° 0.5 mm 4 mps 628 mmHg 90%
    11:00 -5°C° 0.5 mm 5 mps 628 mmHg 90%
    12:00 -5°C° 0.5 mm 5 mps 628 mmHg 89%
    13:00 -5°C° 0.5 mm 5 mps 628 mmHg 90%
    14:00 -4°C° 0.5 mm 4 mps 627 mmHg 90%
    15:00 -4°C° 0.5 mm 4 mps 627 mmHg 90%
    16:00 -4°C° 1 mm 4 mps 628 mmHg 91%
    17:00 -4°C° 1 mm 4 mps 628 mmHg 91%
    18:00 -4°C° 1 mm 4 mps 628 mmHg 92%
    19:00 -4°C° 0.4 mm 3 mps 629 mmHg 92%
    20:00 -4°C° 0.4 mm 3 mps 629 mmHg 92%
    21:00 -4°C° 0.4 mm 3 mps 629 mmHg 92%
    22:00 -4°C° 0.5 mm 3 mps 629 mmHg 93%
    23:00 -3°C° 0.5 mm 2 mps 629 mmHg 93%

    Day after tomorrow, 26 March, Tuesday

    Time Temperature Precipitation Wind Pressure Humidity
    00:00 -3°C° 0.5 mm 2 mps 630 mmHg 93%
    01:00 -3°C° 0.1 mm 2 mps 630 mmHg 93%
    02:00 -3°C° 0.1 mm 2 mps 630 mmHg 94%
    03:00 -3°C° 0.1 mm 2 mps 630 mmHg 94%
    04:00 -3°C° 0.1 mm 2 mps 630 mmHg 94%
    05:00 -3°C° 0.1 mm 2 mps 630 mmHg 95%
    06:00 -2°C° 0.1 mm 2 mps 630 mmHg 96%
    07:00 -2°C° 0 mm 2 mps 630 mmHg 94%
    08:00 -2°C° 0 mm 3 mps 630 mmHg 93%
    09:00 -1°C° 0 mm 3 mps 631 mmHg 91%
    10:00 -1°C° 0 mm 3 mps 631 mmHg 91%
    11:00 -1°C° 0 mm 3 mps 630 mmHg 90%
    12:00 0°C° 0 mm 3 mps 630 mmHg 89%
    13:00 0°C° 0 mm 3 mps 630 mmHg 89%
    14:00 +1°C° 0 mm 2 mps 629 mmHg 89%
    15:00 +1°C° 0 mm 2 mps 629 mmHg 89%
    16:00 -1°C° 0 mm 2 mps 629 mmHg 90%
    17:00 -1°C° 0 mm 2 mps 629 mmHg 91%
    18:00 +1°C° 0 mm 1 mps 629 mmHg 92%
    19:00 +1°C° 0 mm 1 mps 629 mmHg 91%
    20:00 +1°C° 0 mm 1 mps 629 mmHg 91%
    21:00 +1°C° 0 mm 1 mps 629 mmHg 91%
    22:00 +1°C° 0.1 mm 1 mps 629 mmHg 91%
    23:00 +1°C° 0.1 mm 1 mps 629 mmHg 90%

    27 March, Wednesday

    Time Temperature Precipitation Wind Pressure Humidity
    00:00 0°C° 0.1 mm 0 mps 628 mmHg 90%
    01:00 0°C° 0.3 mm 0 mps 628 mmHg 89%
    02:00 0°C° 0.3 mm 0 mps 628 mmHg 89%
    03:00 0°C° 0.3 mm 0 mps 628 mmHg 88%
    04:00 +1°C° 0.1 mm 1 mps 628 mmHg 86%
    05:00 +1°C° 0.1 mm 1 mps 628 mmHg 84%
    06:00 +2°C° 0.1 mm 1 mps 628 mmHg 83%
    07:00 +2°C° 0 mm 1 mps 629 mmHg 81%
    08:00 +3°C° 0 mm 1 mps 629 mmHg 79%
    09:00 +4°C° 0 mm 1 mps 630 mmHg 77%
    10:00 +5°C° 0 mm 1 mps 630 mmHg 74%
    11:00 +5°C° 0 mm 2 mps 630 mmHg 71%
    12:00 +6°C° 0 mm 2 mps 630 mmHg 67%
    13:00 +6°C° 0 mm 2 mps 630 mmHg 67%
    14:00 +6°C° 0 mm 2 mps 630 mmHg 66%
    15:00 +7°C° 0 mm 2 mps 629 mmHg 66%
    16:00 +6°C° 0 mm 2 mps 630 mmHg 67%
    17:00 +5°C° 0 mm 2 mps 630 mmHg 68%
    18:00 +5°C° 0 mm 1 mps 630 mmHg 69%
    19:00 +5°C° 0 mm 1 mps 630 mmHg 68%
    20:00 +5°C° 0 mm 1 mps 630 mmHg 67%
    21:00 +3°C° 0 mm 2 mps 631 mmHg 67%
    22:00 +3°C° 0 mm 2 mps 631 mmHg 65%
    23:00 +3°C° 0 mm 2 mps 630 mmHg 63%

    28 March, Thursday

    Time Temperature Precipitation Wind Pressure Humidity
    00:00 +3°C° 0 mm 2 mps 630 mmHg 62%
    01:00 +3°C° 0 mm 2 mps 630 mmHg 62%
    02:00 +3°C° 0 mm 2 mps 630 mmHg 63%
    03:00 +2°C° 0 mm 2 mps 630 mmHg 63%
    04:00 +2°C° 0 mm 2 mps 631 mmHg 65%
    05:00 +3°C° 0 mm 1 mps 631 mmHg 68%
    06:00 +3°C° 0 mm 1 mps 631 mmHg 70%
    07:00 +4°C° 0.1 mm 1 mps 632 mmHg 71%
    08:00 +5°C° 0.1 mm 1 mps 632 mmHg 72%
    09:00 +5°C° 0.1 mm 1 mps 633 mmHg 72%
    10:00 +5°C° 0.1 mm 2 mps 633 mmHg 73%
    11:00 +5°C° 0.1 mm 2 mps 633 mmHg 74%
    12:00 +5°C° 0.1 mm 2 mps 633 mmHg 75%
    13:00 +4°C° 0.2 mm 3 mps 633 mmHg 77%
    14:00 +3°C° 0.2 mm 3 mps 632 mmHg 79%
    15:00 +3°C° 0.2 mm 3 mps 632 mmHg 80%
    16:00 +2°C° 0.1 mm 3 mps 632 mmHg 83%
    17:00 +2°C° 0.1 mm 3 mps 632 mmHg 85%
    18:00 +1°C° 0.1 mm 3 mps 632 mmHg 87%
    19:00 +1°C° 0.1 mm 2 mps 632 mmHg 87%
    20:00 +1°C° 0.1 mm 2 mps 632 mmHg 88%
    21:00 +1°C° 0.1 mm 2 mps 632 mmHg 88%
    22:00 +1°C° 0.1 mm 2 mps 632 mmHg 89%
    23:00 +1°C° 0.1 mm 2 mps 632 mmHg 90%

    29 March, Friday

    Time Temperature Precipitation Wind Pressure Humidity
    00:00 -1°C° 0.1 mm 2 mps 632 mmHg 91%
    01:00 -1°C° 0.1 mm 2 mps 632 mmHg 92%
    02:00 -1°C° 0.1 mm 2 mps 632 mmHg 93%
    03:00 -1°C° 0.1 mm 3 mps 632 mmHg 94%
    04:00 -1°C° 0.2 mm 3 mps 632 mmHg 94%
    05:00 -1°C° 0.2 mm 3 mps 632 mmHg 95%
    06:00 -1°C° 0.2 mm 3 mps 633 mmHg 95%
    07:00 -1°C° 0.2 mm 3 mps 633 mmHg 93%
    08:00 -1°C° 0.2 mm 3 mps 633 mmHg 92%
    09:00 -1°C° 0.2 mm 3 mps 633 mmHg 90%
    10:00 0°C° 0.1 mm 3 mps 633 mmHg 89%
    11:00 0°C° 0.1 mm 3 mps 633 mmHg 88%
    12:00 0°C° 0.1 mm 3 mps 633 mmHg 86%
    13:00 0°C° 0 mm 3 mps 632 mmHg 86%
    14:00 0°C° 0 mm 3 mps 632 mmHg 86%
    15:00 +1°C° 0 mm 3 mps 632 mmHg 86%
    16:00 0°C° 0 mm 3 mps 631 mmHg 87%
    17:00 0°C° 0 mm 3 mps 631 mmHg 89%
    18:00 -1°C° 0 mm 3 mps 631 mmHg 91%
    19:00 -1°C° 0.1 mm 3 mps 632 mmHg 91%
    20:00 -1°C° 0.1 mm 3 mps 632 mmHg 92%
    21:00 -1°C° 0.1 mm 2 mps 632 mmHg 92%
    22:00 -1°C° 0.1 mm 2 mps 632 mmHg 92%
    23:00 -1°C° 0.1 mm 2 mps 631 mmHg 91%
    Show more